[[{"header":{"parameterUnit":"m.s-1","parameterCategory":1,"la1":30.2991,"la2":30.254,"lo1":-89.0895,"lo2":-89.0444,"dy":0.0017,"dx":0.0017,"nx":28,"ny":28,"refTime":"2024-02-27T09:00:00:Z","depth":0,"parameterNumber":2,"parameterNumberName":"U-component_of_WINDS"},"data":[0,0,0,0,0,0,0,0,0,0,0,0,0,0,0,0,0,0,0,0,0,0,0,0,0,0,0,0,0,0,0,0,0,0,0,0,0,0,0,0,0,0,0,0,0,0,0,0,0,0,0,0,0,0,0,0,0,0,1.4527,1.4528,0,1.4592,1.4593,1.4593,1.4577,1.4576,1.4575,1.4573,1.4641,1.4644,1.4647,0,0,0,0,0,0,0,0,0,0,0,0,0,1.4389,1.4392,1.4527,1.4528,1.4529,1.4592,1.4593,1.4594,1.4577,1.4576,1.4574,1.4573,1.464,1.4643,1.4647,0,0,0,0,0,0,0,0,0,0,0,0,0,1.4451,1.4393,1.4527,1.4528,1.4529,1.4592,1.4593,1.4594,1.4578,1.4576,1.4574,1.4572,1.4639,1.4643,1.4648,1.4713,0,0,1.4661,1.4663,0,0,0,0,0,0,0,0,1.4448,1.4456,1.4527,1.4528,1.4529,1.4575,1.4569,1.4634,1.4578,1.4559,1.4573,1.4571,1.462,1.4626,1.4643,1.4717,1.4719,1.4662,1.4664,1.4666,1.4667,0,0,0,0,0,0,0,1.4443,1.4453,1.4553,1.4528,1.4529,1.4526,1.4532,1.4581,1.46,1.4561,1.456,1.4568,1.4621,1.4638,1.4644,1.472,1.4661,1.4665,1.4668,1.467,1.4851,1.4853,0,0,0,0,0,0,1.4438,1.445,1.4551,1.4555,1.4483,1.453,1.4537,1.4562,1.4599,1.4603,1.4569,1.4567,1.4632,1.4639,1.4646,1.4726,1.4666,1.467,1.4673,1.4849,1.4852,1.4854,0,0,0,0,0,0,1.4435,1.4447,1.4548,1.4502,1.4514,1.4534,1.4562,1.4564,1.4582,1.4606,1.4609,1.4584,1.4631,1.464,1.4697,1.4728,1.4672,1.4676,1.4847,1.485,1.4853,1.4885,0,0,0,0,0,0,1.4431,1.4446,1.4471,1.4503,1.4517,1.4597,1.4564,1.4567,1.459,1.4587,1.462,1.4624,1.463,1.469,1.4701,1.4733,1.468,1.4844,1.4848,1.4852,1.4881,1.4889,1.4896,0,0,0,0,0,1.4426,1.4478,1.4473,1.4485,1.4549,1.4599,1.4607,1.4613,1.4592,1.4618,1.4633,1.4623,1.4723,1.4696,1.4708,1.4742,1.4842,1.4847,1.4852,1.4878,1.4888,1.4896,0,0,0,0,0,0,1.445,1.4482,1.4477,1.454,1.4567,1.4596,1.4628,1.4622,1.4656,1.4652,1.4657,1.4665,1.4723,1.4738,1.4708,1.4808,1.4779,1.4787,1.4796,1.4805,1.4812,1.4807,1.4684,0,0,0,0,0,1.4463,1.4501,1.4527,1.458,1.4594,1.4609,1.4631,1.4633,1.4661,1.4672,1.4691,1.4719,1.4757,1.4782,1.4818,1.4884,1.4891,1.4913,1.492,1.4926,1.4932,1.4968,1.4978,1.487,1.487,1.487,0,0,1.4489,1.4511,1.4535,1.4585,1.4606,1.4646,1.4619,1.4661,1.469,1.4679,1.4733,1.4748,1.478,1.4841,1.4869,1.4856,1.4964,1.4932,1.4936,1.494,1.4974,1.4984,1.4993,1.4873,1.4872,1.4872,0,0,1.4557,1.4578,1.4625,1.4646,1.4678,1.4688,1.4699,1.473,1.4739,1.4794,1.4786,1.4821,1.4885,1.4908,1.4928,1.5005,1.4997,1.5016,1.5054,1.5088,1.5097,1.5105,1.5132,1.5142,1.5023,1.5023,1.5023,0,1.4586,1.4645,1.4649,1.4693,1.4715,1.4706,1.4754,1.4774,1.4817,1.4832,1.4817,1.4897,1.4918,1.4985,1.5003,1.502,1.5033,1.5013,1.5095,1.5103,1.511,1.5136,1.5146,1.5025,1.5025,1.5024,1.5024,0,1.4678,1.4719,1.4753,1.4794,1.482,1.4866,1.4877,1.4903,1.4903,1.4914,1.497,1.4994,1.5035,1.505,1.5051,1.5117,1.5108,1.5094,1.5066,1.5123,1.5147,1.5157,1.5028,1.5027,1.5026,1.5026,0,0,1.4763,1.4806,1.4818,1.4837,1.4872,1.4904,1.4948,1.4988,1.501,1.5039,1.5077,1.5132,1.5119,1.5142,1.5144,1.5175,1.5234,1.5157,1.5158,1.5171,1.5309,1.5319,1.5331,1.5229,1.5231,1.5232,1.5306,0,1.4834,1.4913,1.4918,1.499,1.5028,1.502,1.5059,1.5084,1.5096,1.513,1.5143,1.5182,1.5162,1.5175,1.5205,1.522,1.5262,1.5215,1.5264,1.5266,1.5256,1.5343,1.5355,1.5423,1.5316,1.5317,1.5319,0,1.4927,1.496,1.5035,1.5064,1.508,1.5115,1.5152,1.5184,1.5213,1.522,1.5245,1.5243,1.5289,1.526,1.5323,1.5291,1.5312,1.5322,1.5325,1.5329,1.5296,1.535,1.5445,1.5455,1.5334,1.5333,1.5331,0,1.4981,1.5044,1.5097,1.5113,1.5149,1.5173,1.5189,1.5216,1.524,1.5272,1.5287,1.5324,1.5345,1.5373,1.5382,1.5359,1.5445,1.5416,1.5452,1.5451,1.547,1.5469,1.5569,1.5483,1.5483,1.5483,1.5483,0,1.506,1.5106,1.5121,1.5154,1.5205,1.5211,1.5262,1.5277,1.5301,1.5336,1.5332,1.5365,1.5374,1.5409,1.5416,1.5467,1.5476,1.5483,1.5484,1.5483,1.5482,1.5496,1.5492,1.5486,1.5485,1.5485,1.5484,0,1.5129,1.5141,1.5198,1.5227,1.5236,1.5273,1.5298,1.5329,1.534,1.5385,1.5396,1.5413,1.5454,1.5465,1.5514,1.5519,1.5579,1.5576,1.5569,1.5569,1.5604,1.5601,1.5717,1.5732,1.5637,1.5638,1.5639,0,1.5178,1.5213,1.5247,1.527,1.5287,1.5325,1.5349,1.5356,1.5381,1.5417,1.5444,1.5484,1.5516,1.5582,1.5599,1.5636,1.5634,1.5672,1.564,1.5637,1.5634,1.5632,1.5636,1.5678,1.5679,1.568,1.5681,0,1.5264,1.5268,1.5303,1.534,1.5369,1.5398,1.5426,1.5445,1.5457,1.5485,1.5527,1.5552,1.5602,1.5642,1.5679,1.5696,1.569,1.5691,1.5701,1.57,1.5695,1.5698,1.5586,1.5688,1.5687,1.5687,1.5686,1.5686,1.5324,1.5355,1.5384,1.5422,1.5445,1.5471,1.5502,1.5517,1.5552,1.5593,1.5595,1.564,1.5668,1.5718,1.5737,1.5772,1.5761,1.5776,1.578,1.5783,1.5786,1.5689,1.5779,1.5779,1.5779,1.5779,1.5779,0,1.541,1.5428,1.5463,1.5503,1.5534,1.5526,1.5557,1.5583,1.5622,1.5649,1.5681,1.5729,1.5768,1.5788,1.5826,1.5851,1.5849,1.5861,1.5859,1.5863,1.5794,1.5781,1.5861,1.5861,1.5861,1.5861,1.5861,1.5861,1.5458,1.551,1.5518,1.5581,1.5598,1.5643,1.5661,1.5685,1.5707,1.576,1.5792,1.5805,1.5829,1.587,1.5905,1.591,1.5924,1.5937,1.594,1.5876,1.5868,1.5859,1.5847,1.594,1.594,1.6006,1.6006,1.6007]},{"header":{"parameterUnit":"m.s-1","parameterCategory":1,"la1":30.2991,"la2":30.254,"lo1":-89.0895,"lo2":-89.0444,"dy":0.0017,"dx":0.0017,"nx":28,"ny":28,"refTime":"2024-02-27T09:00:00:Z","depth":0,"parameterNumber":3,"parameterNumberName":"V-component_of_WINDS"},"data":[0,0,0,0,0,0,0,0,0,0,0,0,0,0,0,0,0,0,0,0,0,0,0,0,0,0,0,0,0,0,0,0,0,0,0,0,0,0,0,0,0,0,0,0,0,0,0,0,0,0,0,0,0,0,0,0,0,0,6.6908,6.691,0,6.7078,6.708,6.7082,6.7094,6.7092,6.709,6.7089,6.7256,6.7262,6.7268,0,0,0,0,0,0,0,0,0,0,0,0,0,6.6585,6.6591,6.6907,6.691,6.6912,6.7078,6.708,6.7083,6.7094,6.7092,6.709,6.7088,6.7253,6.7261,6.7268,0,0,0,0,0,0,0,0,0,0,0,0,0,6.6737,6.6593,6.6907,6.6938,6.6942,6.7078,6.708,6.7083,6.7095,6.7092,6.7089,6.7087,6.7251,6.726,6.7269,6.7383,0,0,6.7298,6.7302,0,0,0,0,0,0,0,0,6.6728,6.6749,6.6931,6.6936,6.6941,6.7062,6.7028,6.7184,6.7096,6.7037,6.7089,6.7085,6.7193,6.7207,6.7245,6.7391,6.7398,6.7298,6.7304,6.7308,6.7311,0,0,0,0,0,0,0,6.6718,6.6742,6.6975,6.6934,6.694,6.6941,6.6959,6.7057,6.7128,6.7042,6.7043,6.7063,6.7195,6.7236,6.7249,6.74,6.7298,6.7306,6.7312,6.7316,6.7649,6.7653,0,0,0,0,0,0,6.6702,6.6733,6.6969,6.698,6.6826,6.6949,6.697,6.7026,6.7127,6.714,6.7066,6.7063,6.7221,6.7238,6.7255,6.7396,6.7308,6.7317,6.7322,6.7646,6.765,6.7654,0,0,0,0,0,0,6.6695,6.6723,6.6963,6.6857,6.6887,6.6958,6.7021,6.7031,6.7072,6.7146,6.7157,6.7095,6.722,6.7242,6.7352,6.7402,6.7321,6.7329,6.7642,6.7647,6.7652,6.7679,0,0,0,0,0,0,6.6686,6.6721,6.6767,6.6858,6.6893,6.7059,6.7024,6.7036,6.7089,6.7087,6.7176,6.7188,6.7219,6.7338,6.7361,6.7413,6.7337,6.7638,6.7645,6.765,6.7674,6.7684,6.7693,0,0,0,0,0,6.6675,6.6765,6.6769,6.6797,6.6952,6.7062,6.7082,6.7118,6.7093,6.7138,6.7186,6.7185,6.7392,6.7349,6.7375,6.7431,6.7635,6.7643,6.765,6.767,6.7682,6.7693,0,0,0,0,0,0,6.6675,6.6778,6.6783,6.6906,6.6976,6.7064,6.7123,6.713,6.7206,6.7202,6.7241,6.7261,6.737,6.7411,6.7361,6.7547,6.7511,6.7524,6.7517,6.7529,6.7539,6.7527,6.7344,0,0,0,0,0,6.669,6.6773,6.6857,6.6958,6.6993,6.7052,6.7101,6.7123,6.7196,6.7224,6.728,6.7348,6.7429,6.7481,6.7559,6.7679,6.7699,6.773,6.774,6.7747,6.7758,6.7826,6.7842,6.7678,6.7678,6.7678,0,0,6.672,6.6787,6.6837,6.696,6.7016,6.71,6.7076,6.7165,6.7227,6.7237,6.7346,6.7389,6.7467,6.7584,6.7638,6.7621,6.7808,6.7757,6.7762,6.7769,6.7835,6.7851,6.7865,6.7683,6.7682,6.7681,0,0,6.682,6.6878,6.697,6.7028,6.7115,6.7153,6.7175,6.7263,6.7293,6.7403,6.7413,6.7485,6.7623,6.768,6.7726,6.7848,6.785,6.7871,6.7922,6.7987,6.8,6.8012,6.8056,6.8072,6.7882,6.7882,6.7882,0,6.6847,6.6976,6.7015,6.7106,6.7159,6.7174,6.7266,6.7319,6.7426,6.7462,6.7443,6.7618,6.7671,6.7802,6.7832,6.7868,6.7894,6.7862,6.7996,6.8008,6.8019,6.8062,6.8079,6.7884,6.7884,6.7884,6.7883,0,6.7005,6.7094,6.7157,6.7264,6.7324,6.7414,6.7465,6.7521,6.7538,6.7578,6.769,6.7755,6.7848,6.788,6.7896,6.8013,6.8001,6.7988,6.7952,6.8036,6.8077,6.8094,6.7887,6.7886,6.7886,6.7885,0,0,6.711,6.7238,6.7261,6.731,6.7407,6.7476,6.7566,6.7659,6.7707,6.7779,6.7856,6.7973,6.7963,6.8016,6.8038,6.8095,6.8189,6.8076,6.8078,6.8096,6.8323,6.8333,6.8352,6.8191,6.8194,6.8196,6.8317,0,6.7221,6.7387,6.7425,6.7566,6.7649,6.7664,6.7743,6.781,6.785,6.7924,6.7966,6.805,6.8029,6.8061,6.8119,6.8165,6.8235,6.8157,6.8261,6.8265,6.8243,6.8373,6.8384,6.8495,6.8333,6.8336,6.8338,0,6.7374,6.7454,6.7604,6.7692,6.7728,6.7799,6.7888,6.7959,6.8035,6.806,6.812,6.8136,6.8229,6.8188,6.8317,6.8263,6.8307,6.8336,6.8342,6.8354,6.8307,6.839,6.8531,6.8548,6.8363,6.8361,6.8359,0,6.7438,6.7582,6.7692,6.7733,6.7837,6.7887,6.7932,6.8006,6.806,6.8136,6.8172,6.8257,6.8304,6.8368,6.8407,6.8373,6.8532,6.8494,6.8555,6.8554,6.8589,6.8586,6.874,6.8615,6.8615,6.8614,6.8614,0,6.756,6.7651,6.7722,6.7789,6.7892,6.7934,6.8033,6.8078,6.8144,6.8218,6.8235,6.8304,6.8351,6.8426,6.8456,6.8558,6.8578,6.86,6.8607,6.86,6.8597,6.8631,6.8625,6.8619,6.8618,6.8617,6.8616,0,6.7649,6.77,6.782,6.7911,6.7935,6.8007,6.8083,6.8148,6.8188,6.8283,6.8307,6.8369,6.8459,6.8504,6.8614,6.8634,6.875,6.8751,6.8726,6.8729,6.8788,6.8782,6.897,6.8997,6.8852,6.8853,6.8854,0,6.7724,6.7796,6.7894,6.7947,6.7995,6.8079,6.8135,6.8178,6.8235,6.8328,6.8382,6.8473,6.8548,6.869,6.8744,6.8828,6.8832,6.8892,6.8845,6.8836,6.8835,6.8832,6.8839,6.8901,6.8902,6.8904,6.8904,0,6.7853,6.7875,6.7957,6.8048,6.8116,6.8188,6.826,6.8302,6.8356,6.8419,6.8513,6.8571,6.8686,6.8776,6.8865,6.8908,6.8916,6.8919,6.8938,6.8932,6.8915,6.8926,6.8751,6.8915,6.8914,6.8913,6.8912,6.8912,6.7939,6.8003,6.8084,6.8175,6.8234,6.8301,6.8367,6.8417,6.8496,6.8595,6.8615,6.8714,6.8787,6.8908,6.8955,6.9032,6.9018,6.9045,6.9052,6.9059,6.9063,6.8901,6.9047,6.9047,6.9047,6.9047,6.9047,0,6.807,6.8123,6.8206,6.8308,6.8379,6.8381,6.8461,6.852,6.8608,6.8678,6.8752,6.886,6.8948,6.9009,6.9097,6.9147,6.9152,6.9169,6.9166,6.9177,6.9069,6.9045,6.9163,6.9163,6.9163,6.9163,6.9163,6.9163,6.8147,6.8257,6.8289,6.8429,6.848,6.858,6.8626,6.8687,6.8743,6.8864,6.8938,6.8978,6.9044,6.9138,6.9218,6.9233,6.9265,6.9282,6.9298,6.9196,6.9184,6.9172,6.915,6.9289,6.9289,6.9399,6.94,6.9401]}]]